This is the latest recevied weather packets stored in our database for station/object KG5APU. If no packets are shown the sender has not sent any weather packets the latest 10 day(s).
| Time | Temp. | Humidity | Pressure | Rain* | Wind** | Luminosity | Snow |
|---|---|---|---|---|---|---|---|
| 1788252854 | 28.33° C | 65% | 1016.9 hPa | 0 mm | - | 0 W/m² | - |
| 1788252252 | 28.33° C | 65% | 1017 hPa | 0 mm | - | 0 W/m² | - |
| 1788251648 | 28.89° C | 64% | 1016.9 hPa | 0 mm | - | 0 W/m² | - |
| 1788251047 | 28.89° C | 64% | 1016.9 hPa | 0 mm | - | 0 W/m² | - |
| 1788250443 | 28.89° C | 63% | 1016.6 hPa | 0 mm | - | 0 W/m² | - |
| 1788249863 | 28.89° C | 63% | 1016.8 hPa | 0 mm | - | 0 W/m² | - |
| 1788249239 | 28.89° C | 63% | 1016.7 hPa | 0 mm | - | 0 W/m² | - |
| 1788248639 | 29.44° C | 61% | 1016.5 hPa | 0 mm | - | 0 W/m² | - |
| 1788248036 | 30° C | 60% | 1016.4 hPa | 0 mm | - | 0 W/m² | - |
| 1788247431 | 29.44° C | 60% | 1016.6 hPa | 0 mm | - | 0 W/m² | - |
| 1788246831 | 28.89° C | 61% | 1016.6 hPa | 0 mm | - | 0 W/m² | - |
| 1788246226 | 28.89° C | 60% | 1016.7 hPa | 0 mm | - | 0 W/m² | - |
| 1788245626 | 29.44° C | 60% | 1016.6 hPa | 0 mm | - | 0 W/m² | - |
| 1788245023 | 29.44° C | 60% | 1016.6 hPa | 0 mm | - | 0 W/m² | - |
| 1788244422 | 30° C | 59% | 1016.7 hPa | 0 mm | - | 0 W/m² | - |
| 1788243820 | 30° C | 58% | 1016.7 hPa | 0 mm | - | 0 W/m² | - |
| 1788243216 | 30° C | 57% | 1016.5 hPa | 0 mm | - | 0 W/m² | - |
| 1788242613 | 30° C | 57% | 1016.3 hPa | 0 mm | - | 0 W/m² | - |
| 1788242009 | 30.56° C | 55% | 1015.9 hPa | 0 mm | - | 0 W/m² | - |
| 1788241430 | 30.56° C | 55% | 1016 hPa | 0 mm | - | 0 W/m² | - |
| 1788240805 | 30.56° C | 55% | 1016.1 hPa | 0 mm | - | 0 W/m² | - |
| 1788240202 | 30.56° C | 55% | 1016 hPa | 0 mm | - | 0 W/m² | - |
| 1788239602 | 30.56° C | 55% | 1015.9 hPa | 0 mm | - | 0 W/m² | - |
| 1788238998 | 30° C | 55% | 1015.7 hPa | 0 mm | - | 0 W/m² | - |
| 1788238399 | 30° C | 57% | 1015.8 hPa | 0 mm | - | 0 W/m² | - |
* Rain latest hour (hover to see other rain measurements)
** Current wind speed in m/s (hover to see current wind gust speed)